Location: Rancho Del Sol Observatory
(38.7214°N, 120.6350°W)
Time: 17:56:43
(UTC-08:00)

A-11 Canister half - Pass Details

Date: 30 January 2020
Orbit: 1517 x 1683 km, 47.2° (Epoch: 21 February)

Event Time Altitude Azimuth Distance (km) Brightness Sun altitude
Exits shadow 03:08:11 41° 86° (E) 2,068 9.8 -47.1°
Drops below altitude 10° 03:13:54 10° 103° (ESE) 3,689 11.4 -46.1°
Sets 03:17:00 0° 106° (ESE) 4,683 12.1 -45.5°
